Regional Weather Roundup
Issued by NWS

Home | Current Version | Previous Version | Text Only | Print | Product List | Glossary On
Versions: 1 2 3 4 5 6 7 8 9 10 11 12 13 14 15 16 17 18 19 20 21 22 23 24 25 26 27 28 29 30 31 32 33 34 35 36 37 38 39 40 41 42 43 44 45 46 47 48 49 50
000
ASHW40 PHFO 221830
RWRHI

WEATHER ROUNDUP FOR HAWAII
NATIONAL WEATHER SERVICE HONOLULU HI
800 AM HST FRI AUG 22 2014

THIS IS AN AUTOMATED REPORT THAT HAS NOT BEEN QUALITY CONTROLLED.

NOTE..."FAIR" INDICATES FEW OR NO CLOUDS BELOW 12,000 FEET WITH NO
SIGNIFICANT WEATHER AND/OR OBSTRUCTIONS TO VISIBILITY.

* - THESE SITES REPORT LIMITED FIELDS

HIZ001>004-221900-
KAUAI-NIIHAU-

CITY           SKY/WX    TMP DP  RH WIND       PRES   REMARKS
LIHUE APT      PTSUNNY   78  70  76 N15       30.06R
PORT ALLEN*      N/A     81 N/A N/A E1          N/A
POIPU*           N/A     75 N/A N/A N7G14       N/A
PRINCEVILLE*   NOT AVBL
KOKOLE POINT*  NOT AVBL
MOLOAA DAIRY*  NOT AVBL
WAIMEA HTS*    NOT AVBL
PUU OPAE*      NOT AVBL
PUU LUA*       NOT AVBL
MAKAHA RIDGE*  NOT AVBL
$$

HIZ005>011-221900-
OAHU-

CITY           SKY/WX    TMP DP  RH WIND       PRES   REMARKS
HONOLULU       MOSUNNY   81  67  62 NE6       30.02R
KALAELOA       CLOUDY    79  67  66 VRB6      30.03R
KANEOHE MCB    CLOUDY    79  72  78 E13G22    30.04R
WHEELER FIELD  CLOUDY    75  66  73 NE6       30.05S
BELLOWS*         N/A    N/A N/A N/A NE15G24     N/A
KAHUKU*          N/A    N/A N/A N/A NE8         N/A
WHEELER*       NOT AVBL
WAIANAE HARBOR NOT AVBL
DILLINGHAM*      N/A     75  70  83 E3          N/A
KAHUKU TRN*      N/A     77  68  73 E9G17       N/A
KAWAILOA*      NOT AVBL
KII*             N/A     79  70  73 E12G18      N/A
MAKUA RANGE*     N/A     82  66  57 E12G18      N/A
OAHU FOREST NW NOT AVBL
SCHOFIELD BRK*   N/A     73  68  83 E1          N/A
SCHOFIELD S*   NOT AVBL
WAIANAE VLY*   NOT AVBL
KUAOKALA*      NOT AVBL
HONOULIUULI*   NOT AVBL
MOKUOLOE IS*     N/A    N/A N/A N/A MISG        N/A
PALEHUA*       NOT AVBL
WAIAWA PHB*    NOT AVBL
$$

HIZ012>013-221900-
MOLOKAI-

CITY           SKY/WX    TMP DP  RH WIND       PRES   REMARKS
MOLOKAI AIRPT  PTSUNNY   75  73  94 NE12G17   30.04R
KALAUPAPA      NOT AVBL
MAKAPULAPAI*   NOT AVBL
MOLOKAI 1*     NOT AVBL
PUU ALII*        N/A     60  60  98 E2G12       N/A
$$

HIZ016-221900-
KAHOOLAWE-

CITY           SKY/WX    TMP DP  RH WIND       PRES   REMARKS
KAHOOLAWE*     NOT AVBL
HAKIOAWA*      NOT AVBL
HONOKANAIA*      N/A     81  69  66 NE9G18    30.02R
KANELOA*         N/A     77  68  73 E13G22    30.12
KEALIALALO*    NOT AVBL
LUA MAKIKA*    NOT AVBL
$$

HIZ014>015-221900-
LANAI-

CITY           SKY/WX    TMP DP  RH WIND       PRES   REMARKS
LANAI CITY     FAIR      78  65  64 E10       30.07R
LANAI 1*       NOT AVBL
$$

HIZ017>028-221900-
MAUI-

CITY           SKY/WX    TMP DP  RH WIND       PRES   REMARKS
KAHULUI        MOSUNNY   81  67  62 NE18      30.01R
KAPALUA-W MAUI MOSUNNY   81  64  57 E10G16    30.02
HANA AIRPORT   CLOUDY    79  68  69 CALM      30.06S
HANA*            N/A     81 N/A N/A SE2         N/A
HALEAKALA SUMM   N/A     52  32  46 NE13        N/A
MAALAEA BAY*   NOT AVBL
HALEAKALA*     NOT AVBL
KAUPO GAP*     NOT AVBL
KULA 1*          N/A     58  39  50 NE1G9       N/A
$$

HIZ023>026-221900-
BIG ISLAND OF HAWAII COAST AND LOWER SLOPES-

CITY           SKY/WX    TMP DP  RH WIND       PRES   REMARKS
KAILUA KONA    SUNNY     82  68  62 SE10      29.95S
HILO           PTSUNNY   77  70  79 NW7       30.02R
HONOKAA*       NOT AVBL
KAWAIHAE MWT*    N/A     86 N/A N/A NW2         N/A
KAWAIHAE*        N/A     81 N/A N/A W3          N/A
SOUTH POINT*     N/A     75 N/A N/A NE6         N/A
UPOLU AIRPORT*   N/A    N/A N/A N/A E17G24      N/A
KAMUELA*       CLEAR     72  61  68 NE22      30.09F
HAKALAU*         N/A     63  51  66 N3          N/A
KALOKO-HONOKO*   N/A     82  68  61 SE5       29.95S
PALI 2*          N/A     72  59  64 NE21G32     N/A
KEALAKOMO*       N/A     79  66  65 NE15G22     N/A
KAUPULEHU*     NOT AVBL
KAPAPALA*        N/A     72  64  76 CALM        N/A
LOWER KAHUKU*  NOT AVBL
PUHE CS*       NOT AVBL
PUHO CS*         N/A     77  63  61 E3          N/A
PTA KEAMUKU*     N/A     68  57  68 NE15G21     N/A
WAIKOLOA*      NOT AVBL
$$

HIZ027>028-221900-
BIG ISLAND OF HAWAII INTERIOR AND SUMMMITS-

CITY           SKY/WX    TMP DP  RH WIND       PRES   REMARKS
BRADSHAW FIELD MOSUNNY   65  42  42 SE2       30.33R
MK VISITOR CEN NOT AVBL
MAUNA KEA*       N/A     43   1  17 E22         N/A
MAUNA LOA*       N/A    N/A N/A N/A MISG        N/A
MAUNA LOA 1*     N/A    N/A N/A N/A MISG        N/A
PTA KIPUKA*      N/A     66  50  55 W2          N/A
PTA RANGE 17*    N/A     66  45  45 E3G13       N/A
PTA WEST*        N/A     70  55  60 W3G9        N/A
NENE CABIN*    NOT AVBL
AHUMOA*        NOT AVBL
PTA PORTABLE*  NOT AVBL
PUU MALI*      NOT AVBL
$$

HIC003-221900-
NORTHWEST ISLANDS-

CITY           SKY/WX    TMP DP  RH WIND       PRES   REMARKS
MIDWAY ISLAND  CLEAR     82  73  74 SW15      30.02R
MIDWAY NOS*    NOT AVBL
FRENCH FRIGATE NOT AVBL
$$

PHZ110>124-180-221900-
BUOY REPORTS

STATION/POSITION TIME  TEMP    WIND        PRES    WAVE   SWELL
                       AIR SEA DIR/SP/G            HT/PER HT/DIR
                 (UTC) (F)     (DEG/KT/KT) (MB)    (FT/S) (FT/D)
BUOY 51001       NOT AVBL
BUOY 51101       NOT AVBL
BUOY 51100       1700   77 79   50/ 14/ 17 1017.0R
BUOY 51003       1800   81 82   50/ 10/ 10 1015.6R   5/14   5
BUOY 51004       1656   79 80   40/ 16/ 19 1013.5    7/15   5/180
BARBERS PT BUOY  NOT AVBL
WAIMEA BAY BUOY  1800      81                N/A     3/ 6   2/260
KAILUA BAY BUOY  1800      81                N/A     5/ 9   2/140
LANAI BUOY       NOT AVBL
BARBERS PT 2     1800      81                N/A     4/15   3/200
PAUWELA MAUI     1800      80                N/A     5/ 8
HILO             NOT AVBL
KANEOHE BAY BUOY 1800      80                N/A     4/ 6
HANALEI KAUAI    NOT AVBL
KAHULUI HARBOR   1800   79 80   30/ 15/ 18 1016.3R
HONOLULU HARBOR  1800   80     100/  2/  5 1016.7F
KILO NALU        NOT AVBL
HILO HARBOR      1800   77     300/  7/  9 1015.9S
MOKUOLOE         1800      81              1017.2S
NAWILIWILI       1800      84                N/A
WHOTS BUOY       NOT AVBL
BUOY 51028       NOT AVBL
$$

......................KEY........................................
  SKY/WX - SKY CONDITIONS/PRESENT WEATHER
  TMP    - TEMPERATURE IN FAHRENHEIT
  DWPT   - DEWPOINT IN FAHRENHEIT
  RH     - RELATIVE HUMIDITY IN PERCENT
  WIND   - DIRECTION AND SPEED /MPH FOR ISLANDS...KTS FOR BUOYS/
  PRES   - MEAN SEA LEVEL PRESSURE IN INCHES OF HG
  VSB    - VISIBILITY IN MILES
  HX     - HEAT INDEX
  WCI    - WIND CHILL INDEX
  VRB    - VARIABLE WIND DIRECTION
  N/A    - NOT AVAILABLE


USA.gov is the U.S. government's official web portal to all federal, state and local government web resources and services.